Location: Spruce Knob
(38.6995°N, 79.5330°W)
Time: 13:34:58
(UTC-04:00)

BEESAT - Pass Details

Date: 01 April 2023
Orbit: 696 x 706 km, 98.5° (Epoch: 02 June)

Event Time Altitude Azimuth Distance (km) Brightness Sun altitude
Rises 22:42:03 0° 9° (N) 3,103 ? -32.9°
Reaches altitude 10° 22:44:20 10° 6° (N) 2,179 ? -33.3°
Enters shadow 22:46:00 22° 1° (N) 1,539 ? -33.5°
